Preview of NWS' New Version of Forecast
This preview is not operational and should not be used for support decisions.

Regional Weather Roundup (RWR)

Issued by NWS Wilmington, NC (ILM)

                            
000
ASUS42 KILM 220513
RWRILM
RWRILM
REGIONAL HOURLY WEATHER ROUNDUP
NATIONAL WEATHER SERVICE WILMINGTON NC
1200 AM EST TUE JAN 22 2019
 
NOTE: "FAIR" INDICATES FEW OR NO CLOUDS BELOW 12,000 FEET WITH NO
SIGNIFICANT WEATHER AND/OR OBSTRUCTIONS TO VISIBILITY.
 
...............WFO WILMINGTON COUNTY WARNING AREA...............

......COASTAL NC AND SC COUNTIES......
  
CITY           SKY/WX    TMP DP  RH WIND       PRES   REMARKS
WILMINGTON     FAIR      23  10  57 CALM      30.60R                  
N MYRTLE BEACH FAIR      26  11  52 NE6       30.58R WCI  19          
MYRTLE BEACH   FAIR      28  11  48 NE8       30.59R WCI  20          

......INLAND NC AND SC COUNTIES.......
  
CITY           SKY/WX    TMP DP  RH WIND       PRES   REMARKS
LUMBERTON      FAIR      23  16  74 CALM      30.58R                  
ELIZABETHTOWN  FAIR      21  14  72 CALM      30.58F                  
WHITEVILLE     NOT AVBL                                               
FLORENCE       FAIR      27  11  51 CALM      30.57S                  
DARLINGTON     FAIR      23  16  74 CALM      30.58R                  
KINGSTREE      FAIR      28   9  43 CALM      30.57S                  
HARTSVILLE     FAIR      23   9  54 NE5       30.55S WCI  17          
BENNETTSVILLE  FAIR      25  19  80 CALM      30.58R                  
CONWAY         FAIR      23  19  86 CALM      30.58S                  
GEORGETOWN     FAIR      28  12  50 NE6       30.57S WCI  22          
MARION         FAIR      25  18  74 CALM      30.58S                  
 
....................REST OF NORTH CAROLINA......................

.........EASTERN NC.........
  
CITY           SKY/WX    TMP DP  RH WIND       PRES   REMARKS
CAPE HATTERAS  FAIR      31   5  33 N9        30.55R WCI  23          
JACKSONVILLE   FAIR      17  13  84 CALM      30.59R                  
MOREHEAD CITY  FAIR      24   4  42 N6        30.58R WCI  17          
KENANSVILLE    FAIR      18  14  86 CALM      30.59R                  
NEW BERN       FAIR      19  12  74 S5        30.59R WCI  12          
ELIZABETH CITY FAIR      24   4  42 N12       30.58R WCI  13          

.........CENTRAL NC.........
  
CITY           SKY/WX    TMP DP  RH WIND       PRES   REMARKS
RALEIGH DURHAM FAIR      19   8  62 CALM      30.56R                  
ROCKY MOUNT    FAIR      18  12  77 CALM      30.58R                  
ROANOKE RAPIDS NOT AVBL                                               
FAYETTEVILLE   FAIR      21  14  74 CALM      30.57R                  
HOFFMAN        FAIR      17  11  75 CALM      30.56R                  

.........WESTERN NC.........
  
CITY           SKY/WX    TMP DP  RH WIND       PRES   REMARKS
CHARLOTTE      MOCLDY    28   4  35 CALM      30.54R                  
GREENSBORO     FAIR      19   3  49 W5        30.53R WCI  12          
HICKORY        NOT AVBL                                               
BOONE          NOT AVBL                                               
ASHEVILLE      NOT AVBL                                               

.....................REST OF SOUTH CAROLINA.....................

.........EASTERN SC.........
  
CITY           SKY/WX    TMP DP  RH WIND       PRES   REMARKS
CHARLESTON     FAIR      31  11  43 NE9       30.55R WCI  23          
BEAUFORT MCAS  FAIR      36  15  42 NE9       30.53R WCI  29          
HILTON HEAD    FAIR      37  18  44 NE13G20   30.52S WCI  29          

.........CENTRAL SC.........
  
CITY           SKY/WX    TMP DP  RH WIND       PRES   REMARKS
COLUMBIA       FAIR      30  11  45 E5        30.54R WCI  25          
ORANGEBURG     FAIR      30  13  49 NE5       30.54R WCI  25          
SUMTER SHAW    FAIR      26  11  52 NE3       30.55R                  

.........WESTERN SC.........
  
CITY           SKY/WX    TMP DP  RH WIND       PRES   REMARKS
GREENVILLE     NOT AVBL                                               
ROCK HILL      FAIR      24  13  62 CALM      30.54R                  
ANDERSON       FAIR      29  11  47 NE6       30.48S WCI  23          
CLEMSON        NOT AVBL                                               
GREENWOOD      FAIR      27  12  53 CALM      30.51S                  
 

...................COASTAL AND OFFSHORE REPORTS..................

................LOCAL PIERS AND NC RESERVE................

  
STATION/POSITION TIME  SKY/WX   TEMP    WIND        PRES    VSBY
                                AIR SEA DIR/SP/G
                 (UTC)          (F)     (DEG/KT/KT) (MB)    (MI)
JOHNY MRCER PIER 0436            29     360/  7/  9 1036.2R
NC RESRV MASNBRO NOT AVBL
OCEAN CREST PIER NOT AVBL
SPRINGMAID  PIER NOT AVBL


................COASTAL AND OFFSHORE BUOYS................

  
STATION/POSITION TIME  SKY/WX   TEMP    WIND        PRES    VSBY
                                AIR SEA DIR/SP/G
                 (UTC)          (F)     (DEG/KT/KT) (MB)    (MI)
DIMNDSHOAL 41025 NOT AVBL
CAPE LOOKOUT     0500                   340/ 10/ 13 1035.5R
ONSLOW BAY 41036 NOT AVBL
ONSLOW BAY 41064 0408            34 59   30/ 16/ 23 1033.6R
ONSLOW BAY 41159 0430               55                N/A
WVE H/P(F/S)=  4/11 SWL H/P/D(F/S/D)=  2/ 80/11

MASNBO INL 41110 0500               55                N/A
WVE H/P(F/S)=  2/12 SWL H/P/D(F/S/D)=  2/100/12

WILM HARBR 41108 0430               53                N/A
WVE H/P(F/S)=  2/10 SWL H/P/D(F/S/D)=  2/160/11

27SE WRITB 41037 0408            35 58   30/ 16/ 23 1034.7R
FRYING PAN 41013 0450            38 64   10/ 17/ 27 1035.2R
WVE H/P(F/S)=  5/ 9 SWL H/P/D(F/S/D)=  3/100/ 9

SUNST NRSH 41024 0408            32 53   30/ 12/ 16 1035.3R
CAPRS NRSH 41029 0408            40 56   40/ 16/ 19 1034.1R
EDISTO     41004 0450               61   40/ 17/ 23 1033.6S
WVE H/P(F/S)=  4/10 SWL H/P/D(F/S/D)=  2/110/10



..........OFFSHORE BUOYS BEYOND 100 NM OFFSHORE...........
.....IN A TRIANGLE---HAT TO BERMUDA TO BAHAMAS TO HAT..... 

  
STATION/POSITION TIME  SKY/WX   TEMP    WIND        PRES    VSBY
                                AIR SEA DIR/SP/G
                 (UTC)          (F)     (DEG/KT/KT) (MB)    (MI)
150E HAT   41001 NOT AVBL
W BERMUDA  41048 NOT AVBL
ATLANTIC S 41049 0450               75  320/ 16/ 19 1021.6R
WVE H/P(F/S)=  4/ 6 SWL H/P/D(F/S/D)=  2/290/ 8

E BAHAMAS  41046 0450                    30/ 21/ 25 1022.6F
WVE H/P(F/S)=  4/12 SWL H/P/D(F/S/D)=  3/340/12

NE BAHAMAS 41047 0450                   360/ 19/ 25 1027.0R
WVE H/P(F/S)= 10/10 SWL H/P/D(F/S/D)=  5/310/10

120E CANVRL41010 0500            62 76   60/ 14/ 19 1029.4

END